CZ-3B DEB, 40164

Orbit data source: Space-Track

CZ-3B DEB, 40164 is space debris in HEO originally from a launch on Sat, 04 Sep 2010 UTC launched from the Xichang Space Center, China (XSC). Debris objects in space refer to the collection of defunct objects orbiting the Earth. Examples of debris include non-operational satellites, rocket bodies, and fragments generated from explosions, collisions, or faulty payload assembly.

Loading next visibility...
Identifier
40164, 2010-042R
Orbit
HEO
Country
Flag of CNCN / PRC
Related business
Manufacturer
CALT
Mission
Spacecraft
Bus & Motor
Unknown
Mass
Unknown
Launch date (UTC)
2010-09-04 (15 years ago)
Launch vehicle
Unknown
Launch site
Xichang Space Center, China (XSC)
Object type
Payload
Rocket body
Debris
Shape & HBR
Unknown
Radar Cross Section
Medium (>0.1 m² and <1 m²)

Expand to show TLE details & history
Last TLE update: 18 hours ago

TLE from 18 hours ago
0 CZ-3B DEB
1 40164U 10042R   25259.88085161 -.00000014  00000-0  00000-0 0  9998
2 40164  27.3342 303.0459 7277134 270.5587 183.2430  1.89871003 82072
Epoch: 2025-09-16T21:08Z
TLE epoch observation values (Epoch: 2025-09-16T21:08:25.579Z)
Latitude
27.33817°
Longitude
81.29437°
Altitude
41,193.426 km
Speed
1.513 km/s
True Right ascension
02h 17m 51s
True Declination
27° 19' 02"
Sunlit
Object was in daylight at epoch
Visualization orbit readout
Latitude
Unknown
Longitude
Unknown
Altitude
Unknown
Speed
Unknown
Apparent Right ascension
Unknown
Apparent Declination
Unknown
Sunlit
N/A
Visualization observer readout
Local Sidereal Time
08:15:30
Azimuth
Unknown
Elevation
Unknown
Doppler factor
Unknown
Orbital elements
Apogee altitude
41,223.452 km
Perigee altitude
1,123.845 km
Semi-major axis
27,551.786 km
Eccentricity
0.72771
Inclination
27.3342°
RAAN
303.0459°
Arg. of periapsis
270.5587°
True anomaly
180.74528°
Mean anomaly
183.243°
Eccentric anomaly
181.87719°
Mean motion
0.47459 °/min
Orbital period
758.55 mins
BSTAR
0
Loading maneuver chart data...
Computing Atmospheric mass density...
Loading historical data...
Loading historical data...
Loading historical data...
Loading historical data...
Loading historical data...
Loading historical data...
Loading historical data...

Documentation

Showing up to 5 results
|